Doylestown, PA

2:32 PM EST on December 07, 2019 (GMT -0500)
Doylestown

Weather History for KDYL - October, 2019

Change the Weather History Date:

Sunday, October 6, 2019

  Actual Average (WUND) Record (WUND)
Temperature  
Mean Temperature 58 °F -  
Max Temperature 69 °F - - (-1)
Min Temperature 48 °F - - (-1)
Degree Days  
Heating Degree Days 6    
Growing Degree Days 8 (Base 50)    
Moisture  
Dew Point 53 °F    
Average Humidity 78    
Maximum Humidity 90    
Minimum Humidity 70    
Precipitation  
Precipitation 0.10 in - - ()
Sea Level Pressure  
Sea Level Pressure 30.28 in    
Wind  
Wind Speed 2 mph (SSE)    
Max Wind Speed 7 mph    
Max Gust Speed -    
Visibility 10 miles    
Events Rain    
Averages and records for this station are not official NWS values.
T = Trace of Precipitation, MM = Missing Value Source: NWS Daily Summary

Daily Weather History Graph

Daily Weather History Graph

Search for Another Location

Airport or City:

Astronomy

Oct. 06, 2019 Rise Set
Actual Time 7:01 AM EDT 6:34 PM EDT
Civil Twilight 6:34 AM EDT 7:02 PM EDT
Nautical Twilight 6:02 AM EDT 7:33 PM EDT
Astronomical Twilight 5:31 AM EDT 8:05 PM EDT
Moon 3:13 PM EDT (10/6) No Moon Set
Length of Visible Light 12h 27m
Length of Day
11h 33m
First Quarter, 59% of the Moon is Illuminated
Oct 6
First Quarter
Oct 13
Full
Oct 21
Last Quarter
Oct 27
New
Nov 4
First Quarter

Hourly Weather History & Observations

Time (EDT) Temp. Dew Point Humidity Pressure Visibility Wind Dir Wind Speed Gust Speed Precip Events Conditions
12:54 AM 48.9 °F 43.0 °F 80% 30.34 in 10.0 mi Calm Calm - N/A   Mostly Cloudy
1:54 AM 48.9 °F 43.0 °F 80% 30.34 in 10.0 mi Calm Calm - N/A   Mostly Cloudy
2:54 AM 50.0 °F 44.1 °F 80% 30.33 in 10.0 mi NE 3.5 mph - N/A   Overcast
3:54 AM 53.1 °F 46.0 °F 77% 30.31 in 10.0 mi Calm Calm - N/A   Overcast
4:38 AM 54.0 °F 46.9 °F 77% 30.30 in 10.0 mi Calm Calm - N/A   Overcast
4:49 AM 53.6 °F 46.4 °F 77% 30.30 in 10.0 mi Calm Calm - N/A   Overcast
4:54 AM 54.0 °F 46.9 °F 77% 30.31 in 10.0 mi Calm Calm - N/A   Overcast
5:32 AM 55.0 °F 46.9 °F 74% 30.30 in 10.0 mi Calm Calm - N/A   Overcast
5:54 AM 55.0 °F 48.0 °F 77% 30.30 in 10.0 mi Calm Calm - N/A   Overcast
6:54 AM 55.0 °F 48.0 °F 77% 30.30 in 10.0 mi Calm Calm - N/A   Overcast
7:54 AM 55.9 °F 50.0 °F 80% 30.31 in 10.0 mi Calm Calm - N/A   Overcast
8:14 AM 55.9 °F 50.0 °F 80% 30.30 in 10.0 mi Calm Calm - N/A   Overcast
8:54 AM 57.0 °F 50.0 °F 77% 30.31 in 10.0 mi Calm Calm - N/A   Overcast
9:54 AM 59.0 °F 52.0 °F 78% 30.30 in 10.0 mi Variable 4.6 mph - N/A   Overcast
10:54 AM 62.1 °F 54.0 °F 75% 30.30 in 10.0 mi Variable 3.5 mph - N/A   Overcast
11:54 AM 66.0 °F 57.0 °F 73% 30.29 in 10.0 mi Variable 5.8 mph - N/A   Overcast
12:54 PM 68.0 °F 57.9 °F 70% 30.28 in 10.0 mi Variable 5.8 mph - N/A   Overcast
1:54 PM 66.9 °F 60.1 °F 79% 30.26 in 10.0 mi Variable 5.8 mph - 0.00 in   Overcast
2:54 PM 68.0 °F 59.0 °F 73% 30.25 in 10.0 mi South 4.6 mph - N/A   Overcast
3:54 PM 69.1 °F 59.0 °F 70% 30.24 in 10.0 mi SSW 6.9 mph - 0.00 in   Overcast
4:54 PM 64.9 °F 61.0 °F 87% 30.24 in 10.0 mi South 4.6 mph - 0.06 in Rain Light Rain
5:54 PM 66.0 °F 62.1 °F 87% 30.23 in 10.0 mi South 3.5 mph - 0.01 in   Overcast
6:54 PM 66.0 °F 62.1 °F 87% 30.22 in 10.0 mi South 3.5 mph - 0.02 in Rain Light Rain
7:54 PM 66.0 °F 61.0 °F 84% 30.21 in 10.0 mi Variable 4.6 mph - 0.00 in   Overcast
8:54 PM 64.9 °F 62.1 °F 90% 30.22 in 10.0 mi Calm Calm - 0.01 in   Overcast
9:54 PM 68.0 °F 60.1 °F 76% 30.22 in 10.0 mi SSE 6.9 mph - N/A   Overcast
10:54 PM 68.0 °F 60.1 °F 76% 30.22 in 10.0 mi SSE 5.8 mph - N/A   Overcast
11:54 PM 69.1 °F 60.1 °F 73% 30.21 in 10.0 mi South 5.8 mph - N/A   Overcast